RH
84 93 97 91 90 89 83 81 82 75 70 70 67 67 66 60 53 49 49 48 47 44 41 39 36 30 26 26 25 24 24 24 23 23 22 21 20 19 20 21 21 21 21 20 19 19 19 16 16 13 10 9 12 22 27 36 41 39 40 42 35 28 27 29 30 32 34 33 32 32 28 27 24 24 26 25 25 23 25 26 25 27 28 30 30
83 85 90 84 80 83 79 78 80 74 68 67 63 61 59 51 47 47 46 46 43 42 42 40 35 29 28 28 26 25 25 25 24 23 22 21 21 22 22 22 22 22 23 23 22 21 19 18 17 12 10 9 12 21 27 37 45 41 37 41 41 30 27 27 25 26 28 27 22 21 21 21 20 21 22 22 23 23 24 25 24 22 24 26 28
89 88 89 83 77 79 82 81 76 67 63 65 62 56 52 48 45 43 43 45 44 41 42 40 35 33 35 33 29 28 30 30 29 27 25 24 24 24 24 24 23 22 23 23 25 23 21 20 16 11 9 10 14 21 27 36 45 47 40 38 41 35 29 28 25 23 17 16 16 16 16 16 16 16 16 16 18 21 23 24 24 21 20 22 25
95 93 91 86 79 74 75 76 69 59 56 54 55 60 54 49 44 39 39 44 46 42 39 39 38 39 40 37 34 36 38 38 36 33 30 28 28 27 26 26 25 23 22 22 23 23 22 19 16 12 10 12 15 21 27 34 43 49 44 35 37 39 35 33 33 28 16 10 11 13 14 13 13 13 12 12 13 15 18 20 23 22 19 19 21
96 93 87 82 79 71 62 57 55 46 39 35 41 53 46 41 41 35 35 38 41 38 36 37 37 40 41 41 42 45 45 44 42 40 37 34 33 31 28 27 26 25 24 23 22 21 21 19 16 13 13 16 18 23 27 29 37 45 45 38 36 38 36 37 39 34 22 10 8 11 12 12 11 11 11 10 11 11 13 14 17 19 18 18 18
86 82 78 76 72 62 48 38 46 41 29 28 29 33 30 32 35 32 32 33 34 34 35 36 37 38 40 42 44 45 44 44 44 43 41 39 37 35 32 30 28 27 25 25 23 21 20 19 16 13 16 21 24 26 27 26 28 34 41 42 42 40 35 33 35 35 26 12 10 12 11 11 10 10 10 9 10 10 11 11 12 14 15 17 17
70 67 71 76 65 50 37 28 45 48 31 28 29 30 30 30 31 29 29 30 31 32 33 35 36 36 37 39 40 39 38 39 41 41 41 40 39 37 36 35 34 31 29 27 25 23 21 20 17 15 19 26 31 29 28 27 23 26 32 37 45 45 37 30 29 31 26 15 11 13 12 11 10 11 11 10 9 10 10 11 11 11 13 15 17
59 58 61 64 55 41 30 24 35 41 30 25 25 29 29 28 27 25 25 27 29 30 30 31 31 31 32 33 34 34 34 35 35 35 36 36 36 36 36 36 36 35 34 31 28 26 23 22 19 19 23 27 30 30 29 27 23 24 26 33 48 53 46 34 24 26 25 15 11 14 14 13 13 13 14 13 11 11 10 11 12 11 12 13 15
49 52 52 49 44 34 26 26 28 33 29 20 21 24 24 22 21 21 24 27 28 28 27 27 27 28 28 28 30 32 33 33 33 32 32 33 33 33 34 35 35 35 34 33 31 30 28 25 22 20 25 26 26 32 36 34 27 25 33 44 51 60 63 45 22 21 25 16 11 13 16 17 16 17 17 16 14 12 12 12 13 12 12 13 15
37 39 41 38 35 27 23 25 24 28 25 19 21 21 20 18 19 22 27 29 28 28 27 26 26 25 25 26 27 29 30 30 31 32 32 32 32 34 36 38 38 36 34 33 30 30 31 30 26 21 23 25 25 32 40 42 34 29 45 56 49 59 73 63 34 19 24 22 15 11 17 21 20 22 22 21 18 15 14 13 13 13 13 14 15
33 34 36 33 31 25 20 20 18 20 19 18 17 17 18 16 19 23 27 29 28 29 29 27 24 23 23 24 25 26 27 28 30 30 31 31 32 35 39 43 44 43 41 38 35 32 31 32 31 26 23 23 25 29 33 35 35 33 43 50 44 49 61 70 53 25 21 27 26 16 14 22 23 25 26 26 23 18 16 16 15 14 14 15 16
33 35 35 33 29 24 19 17 17 17 16 17 15 16 18 15 16 19 22 25 26 27 26 25 23 22 22 22 23 23 24 25 27 28 29 29 32 35 39 44 46 46 46 44 43 42 38 34 31 31 28 24 24 27 29 27 29 32 34 44 48 44 44 59 64 43 29 30 37 29 15 18 22 24 28 30 28 24 20 18 17 16 15 15 16
33 33 33 31 27 23 21 19 19 18 16 16 13 14 15 14 15 16 19 21 24 24 22 22 22 23 25 26 26 26 27 28 26 27 29 31 33 35 37 41 44 45 46 44 43 46 46 42 34 32 32 30 26 25 29 26 26 28 28 40 47 45 43 45 55 58 47 41 47 44 25 16 19 23 27 30 31 30 25 20 19 18 17 17 17
33 33 32 28 27 24 22 20 17 15 13 13 14 14 14 16 16 17 19 19 19 19 20 23 25 28 31 33 35 37 38 38 35 35 37 40 42 42 41 40 41 43 45 47 46 46 46 45 40 33 31 32 31 29 29 28 30 29 31 42 41 41 45 38 40 51 51 47 53 54 40 23 17 21 24 27 32 33 31 25 22 20 19 19 18
35 34 31 28 28 24 21 17 14 13 12 13 16 16 15 14 15 16 16 16 19 22 26 29 31 33 34 36 40 43 44 46 47 49 52 55 59 60 57 46 41 46 50 51 51 50 46 43 43 38 31 27 28 32 31 33 39 33 33 42 38 34 40 38 30 38 48 42 49 57 51 41 25 18 22 24 28 34 35 32 27 24 21 20 20
33 31 28 27 26 23 20 15 14 13 13 15 17 15 12 11 13 14 14 18 24 29 32 34 36 36 37 39 42 44 47 51 56 63 66 68 72 75 72 59 52 58 58 56 56 55 50 46 43 37 34 31 28 30 32 35 39 37 38 41 34 29 34 38 26 32 53 45 45 56 55 59 46 22 19 22 23 30 34 36 32 28 25 22 21
28 27 24 25 25 22 19 16 16 15 17 21 19 12 8 8 12 14 17 23 29 35 40 38 37 38 41 43 45 48 51 54 60 70 70 71 79 84 82 73 68 66 61 61 60 57 52 45 42 40 42 41 37 37 42 42 37 37 47 51 42 34 33 37 30 32 57 56 47 53 52 62 66 35 18 20 19 25 29 33 35 32 30 26 23
23 22 21 23 23 20 18 17 16 18 24 25 19 10 6 8 12 18 23 27 31 40 45 38 33 35 38 43 48 52 55 58 61 65 64 68 77 84 89 82 73 66 63 66 61 57 51 47 59 64 55 48 50 53 55 56 51 46 49 52 49 48 44 41 40 35 50 58 46 50 52 59 75 49 21 20 17 20 25 27 33 33 33 31 28
21 19 19 20 20 17 15 14 15 23 27 22 16 11 8 11 20 28 33 34 36 43 42 33 30 31 33 40 47 51 56 60 62 59 57 66 70 73 81 77 71 66 65 62 54 48 40 54 79 79 64 57 59 61 64 64 63 61 52 47 47 53 57 51 49 45 45 49 39 44 51 55 74 62 31 23 19 19 22 23 28 31 31 31 32
20 17 15 16 14 11 10 14 21 24 20 15 16 16 14 20 30 39 42 40 39 39 35 31 30 31 32 37 42 46 50 55 59 58 55 62 66 66 67 64 64 64 61 55 49 40 29 54 79 73 71 73 69 68 71 71 68 70 62 57 57 56 61 58 54 53 49 48 41 39 44 45 61 67 46 27 22 21 22 23 23 27 30 29 31
18 14 11 11 10 11 17 22 25 21 16 17 22 25 27 30 36 42 44 38 32 31 30 30 31 32 35 36 39 39 40 45 51 57 57 59 61 61 60 58 59 57 57 53 50 45 34 54 73 67 71 74 73 74 72 73 73 75 73 71 73 67 64 67 64 59 54 51 48 40 38 39 46 60 59 41 29 26 28 29 25 24 27 29 30
14 12 11 12 15 23 29 28 25 22 21 26 29 32 34 34 36 39 40 35 29 27 26 28 31 34 36 36 36 34 31 32 38 47 51 53 54 55 55 55 56 54 54 52 50 52 50 59 68 61 60 63 65 64 64 72 72 68 72 76 81 79 71 75 77 72 68 66 64 55 41 35 37 48 60 58 41 30 33 35 33 28 24 27 29
11 11 13 19 26 31 29 26 24 24 26 30 31 31 30 29 29 31 33 33 29 24 22 23 27 30 32 32 30 28 26 21 24 33 39 44 47 49 51 50 50 48 46 46 46 50 55 61 63 55 50 48 45 42 46 59 63 59 64 73 80 85 81 82 83 77 77 79 79 77 63 43 33 38 52 63 56 43 41 42 40 35 29 26 27
9 9 14 23 30 29 25 24 23 22 25 27 26 24 24 23 22 23 24 25 23 20 18 17 20 21 21 21 20 22 24 19 18 24 28 32 35 36 39 39 36 32 28 29 31 35 41 44 45 42 35 29 26 26 34 47 55 55 57 65 75 84 86 85 82 74 70 72 75 81 82 66 41 35 44 54 60 57 53 52 47 41 35 29 26
11 9 13 21 27 25 23 24 22 20 20 19 17 16 16 16 15 15 15 15 15 16 17 16 18 18 15 14 14 18 23 23 20 19 18 19 22 26 30 32 27 21 15 11 12 14 16 18 20 21 18 15 14 19 35 50 56 56 53 53 60 68 73 71 67 65 65 68 72 77 85 83 60 38 39 46 52 57 56 55 52 47 42 34 29
16 13 14 18 24 24 23 23 21 19 16 13 11 9 10 11 10 11 13 14 16 17 19 19 20 20 18 16 16 19 22 23 22 17 11 10 13 16 20 22 19 14 9 5 4 4 5 5 6 7 8 7 7 13 30 47 59 66 65 58 52 51 54 55 54 55 57 58 62 72 80 85 74 47 37 43 48 53 54 54 53 52 50 40 31
18 15 13 17 22 23 21 17 14 14 11 9 9 10 12 12 10 10 11 16 22 25 26 25 24 22 20 17 18 21 23 23 23 16 7 8 10 9 8 7 7 6 4 3 1 2 4 5 4 3 3 2 2 8 16 25 35 49 62 70 69 66 63 62 59 55 53 52 53 64 75 79 79 61 43 42 47 52 54 55 56 55 55 47 34
14 12 12 16 21 20 17 12 9 8 8 10 13 14 15 13 12 9 10 16 24 30 31 29 27 25 21 18 19 21 23 23 22 16 11 13 12 6 4 3 3 4 3 3 2 1 2 6 7 4 2 1 2 5 7 9 12 16 25 38 50 60 67 67 64 58 54 55 54 59 70 76 77 71 60 53 52 53 53 55 57 58 58 53 40
10 10 10 13 15 13 10 7 5 6 8 12 14 14 14 14 14 14 16 18 22 25 26 26 25 25 23 21 20 20 23 25 22 20 20 17 10 4 3 4 5 6 6 6 5 4 2 4 5 3 1 1 1 3 5 6 6 6 6 7 12 19 29 39 45 50 53 58 60 59 65 73 74 72 70 67 62 58 55 55 58 61 61 57 49
6 7 7 8 7 5 3 2 3 4 7 9 11 12 14 17 21 24 25 24 23 19 16 15 17 19 19 19 17 15 17 22 20 20 19 13 6 5 5 6 7 7 8 7 7 6 5 5 4 3 3 2 3 4 4 5 5 6 6 6 6 4 4 8 13 22 33 46 58 64 68 72 73 69 67 69 70 65 59 57 61 65 64 61 56
3 4 5 3 2 1 1 2 3 5 7 9 10 12 14 22 28 27 24 23 19 14 9 6 7 9 8 8 8 6 6 9 10 11 11 8 6 6 6 7 8 8 8 8 8 7 6 6 6 5 5 5 6 6 7 8 8 8 8 7 7 7 5 3 3 3 6 16 29 45 59 69 75 70 62 64 68 69 64 59 61 65 66 63 57
3 3 3 2 2 2 1 2 4 6 8 10 11 12 15 23 25 17 12 12 8 6 5 4 4 4 4 3 3 2 3 4 6 8 8 8 7 7 7 8 8 9 8 8 8 8 8 7 7 7 7 7 7 7 8 7 7 7 7 7 6 5 5 5 5 4 2 3 5 12 27 47 66 74 71 65 64 71 73 67 63 64 67 69 62
4 3 3 2 2 3 2 3 4 5 5 5 7 9 14 21 20 10 5 6 5 4 5 5 6 5 5 4 4 5 5 7 8 10 10 9 9 7 8 8 8 9 8 9 9 8 8 8 8 8 8 8 7 7 7 6 6 6 5 6 6 5 5 5 5 5 5 4 3 3 6 18 40 61 76 76 73 78 79 74 71 67 66 68 66
8 6 5 4 3 3 4 5 4 4 4 3 3 6 12 19 17 8 5 7 6 6 7 7 7 6 7 7 7 7 8 9 10 11 11 10 9 9 9 9 9 9 9 9 9 9 9 9 9 9 9 8 8 8 7 7 6 6 7 6 6 6 5 6 6 6 6 5 5 5 3 6 14 30 55 73 84 86 77 74 77 77 74 68 66
11 9 6 4 3 3 5 6 5 4 4 3 2 4 10 17 16 7 5 7 7 7 8 8 8 7 9 8 8 9 9 10 10 11 11 10 11 10 10 10 10 10 10 10 10 10 10 9 9 9 10 9 9 9 8 9 8 8 7 7 7 6 6 6 5 5 6 6 5 5 4 4 3 6 18 40 68 87 78 67 71 77 79 71 63
7 7 5 3 2 3 5 6 5 4 3 2 4 8 11 13 13 7 4 6 7 8 8 8 8 8 10 9 8 9 10 10 11 11 11 11 11 11 11 11 11 11 11 12 11 12 11 11 11 11 11 11 11 11 10 10 10 10 9 9 9 8 8 7 7 6 6 6 6 6 5 4 3 1 1 6 31 69 80 66 61 67 73 71 65
5 5 4 2 1 2 4 4 5 5 6 8 11 14 13 9 8 6 5 6 6 7 8 8 8 9 9 9 8 10 10 10 11 11 12 12 11 11 11 11 11 11 12 12 12 12 12 12 12 12 12 12 12 12 12 12 11 11 11 11 11 10 10 9 9 8 7 7 7 8 7 6 5 3 3 0 4 36 70 76 63 59 67 71 69
5 5 2 2 3 3 2 4 5 6 10 14 13 11 9 6 5 5 5 6 6 7 8 8 9 9 9 10 10 10 10 11 10 11 14 14 11 10 11 11 11 11 11 11 11 12 12 12 12 12 13 13 13 13 13 13 13 13 13 12 12 12 12 11 11 10 9 8 8 9 9 8 8 6 6 6 2 8 39 69 68 53 55 63 69
5 6 3 5 8 5 2 3 5 6 9 10 9 7 7 7 6 6 6 7 7 8 8 9 10 9 11 13 11 10 11 11 11 12 13 13 11 10 10 10 11 11 11 11 11 12 11 12 12 12 13 12 13 13 13 14 14 14 14 13 14 13 13 13 12 12 11 10 9 9 9 8 8 8 7 8 9 5 11 36 55 53 46 49 62
4 5 6 10 11 8 5 4 5 6 7 7 7 8 8 8 8 8 8 8 8 9 9 9 10 10 11 12 11 11 11 11 12 11 11 11 10 11 11 11 11 11 11 11 12 12 12 12 13 13 13 13 13 13 13 14 14 14 14 14 14 14 14 14 13 13 13 12 12 10 10 10 7 7 7 7 8 10 8 11 26 41 46 47 53
4 4 8 12 12 9 6 5 5 6 6 7 8 8 9 9 9 9 9 9 9 9 10 10 10 10 10 10 10 10 10 10 10 10 10 10 10 9 9 9 10 10 11 12 12 12 13 13 13 13 13 13 14 14 14 14 14 14 14 14 14 14 14 14 14 14 14 13 13 12 12 11 10 8 8 8 6 8 11 10 11 19 32 45 55
4 5 8 11 12 9 6 5 6 7 7 8 9 9 9 9 9 10 9 10 9 9 10 10 10 9 9 9 8 8 8 8 8 9 9 8 8 8 8 8 8 9 10 11 11 12 13 13 13 13 14 14 15 15 15 15 15 15 15 14 14 14 14 14 14 14 15 15 14 14 14 13 12 12 9 8 8 7 7 10 11 11 16 29 48
3 5 7 10 12 8 6 6 6 8 8 9 9 9 10 9 9 9 9 9 9 9 8 8 9 8 8 8 8 8 8 8 8 8 8 8 8 8 7 8 7 8 8 9 10 11 11 12 12 12 13 14 15 16 17 16 16 16 16 15 15 15 14 14 14 14 15 15 15 15 15 15 14 13 12 10 9 9 8 8 10 12 13 17 27
4 5 6 8 9 7 6 7 7 8 9 9 9 9 9 9 9 9 9 9 8 8 8 8 8 8 8 8 8 8 8 8 8 8 8 8 8 8 8 8 7 7 7 7 8 9 10 10 10 10 11 13 15 16 17 17 17 17 17 16 16 16 16 15 15 15 16 15 16 16 16 16 15 14 13 13 11 10 10 10 9 9 11 14 18
5 5 6 6 7 6 6 7 7 8 9 8 8 9 9 9 9 9 9 9 9 9 9 9 9 9 9 9 9 9 9 9 9 8 9 9 8 8 8 8 8 7 6 6 7 8 9 9 9 9 10 12 14 16 17 18 18 18 18 17 17 17 16 17 16 16 17 16 16 17 16 16 16 16 14 14 13 11 10 10 10 10 10 11 14
9 7 7 6 6 7 6 7 7 8 8 8 8 8 9 9 9 9 9 9 9 9 9 9 9 9 9 9 9 9 9 9 9 9 9 9 8 8 7 9 12 10 6 5 7 8 8 9 9 10 11 13 14 15 17 18 19 19 19 19 18 18 17 17 18 17 17 18 18 17 17 16 16 16 16 15 14 13 12 11 10 10 10 10 10
9 9 8 7 6 7 7 7 7 8 8 8 8 8 9 9 8 9 8 9 9 9 9 8 8 7 7 7 8 8 9 9 9 9 8 8 8 8 7 11 16 12 6 5 7 8 9 9 11 12 14 15 15 16 17 18 19 20 20 21 20 20 20 19 19 19 19 18 18 17 16 16 16 16 16 16 15 14 13 12 11 10 10 10 10
7 9 10 8 7 7 7 9 9 9 9 9 9 9 9 8 8 8 8 8 8 7 7 6 6 5 6 7 8 9 9 8 8 8 8 8 8 7 6 11 17 10 5 6 8 9 10 10 12 14 16 16 17 17 18 19 20 21 21 21 22 22 21 21 20 20 20 19 18 18 17 16 16 16 15 15 15 15 14 13 11 12 11 10 9
9 10 12 11 9 7 6 7 8 9 9 10 10 9 9 9 8 8 7 7 7 7 8 8 8 8 8 9 10 10 9 8 8 8 8 7 8 8 4 8 14 9 5 7 8 9 10 11 13 14 16 17 18 18 19 20 20 21 22 21 22 22 22 22 21 20 19 19 19 18 18 18 17 16 16 15 15 15 14 14 13 12 12 11 10
15 13 13 15 13 10 8 7 7 8 8 10 11 13 13 12 11 9 9 10 12 14 15 16 15 13 11 11 11 11 9 8 8 8 9 8 9 7 3 6 12 9 6 8 9 10 11 12 14 15 17 18 19 20 20 21 20 20 21 21 20 21 21 21 21 21 21 21 22 22 21 20 19 18 17 16 15 14 14 13 13 13 12 11 11
26 19 16 18 17 15 13 9 8 9 10 14 16 16 16 14 13 12 13 13 14 16 16 15 14 12 12 13 13 11 9 9 9 9 9 9 9 6 2 7 12 10 7 9 9 10 12 13 15 16 18 19 20 21 21 21 21 21 20 20 19 19 19 20 21 22 24 24 24 23 23 22 22 20 19 18 16 15 15 14 13 13 13 11 10
Wind_Speed
27 28 27 25 22 21 19 19 19 17 17 17 17 18 18 17 17 18 20 20 20 19 18 18 17 16 17 17 18 18 18 18 17 16 16 16 15 15 15 15 15 15 13 12 11 10 9 10 9 9 9 9 8 8 8 9 10 11 11 10 9 9 11 12 12 10 9 9 8 10 12 13 14 16 15 14 14 14 14 13 13 12 13 13 13
23 24 24 22 20 18 17 18 17 16 15 14 15 17 18 17 18 19 19 19 19 18 18 18 17 17 17 18 19 19 18 17 16 16 16 15 14 14 15 15 14 14 13 12 11 10 10 9 9 9 10 9 9 8 8 9 9 9 9 8 8 8 9 10 10 9 8 8 8 10 12 12 13 14 13 14 13 14 13 12 12 11 12 13 13
19 19 19 18 17 16 16 18 18 16 13 12 13 16 18 18 18 18 17 18 18 18 18 18 17 17 18 18 19 18 17 16 16 15 14 13 13 13 13 13 13 13 13 12 11 10 10 9 9 9 9 9 8 8 7 8 7 7 6 6 6 6 7 8 8 9 8 7 8 9 10 11 12 12 11 12 11 11 11 11 11 11 11 11 12
17 17 17 16 15 15 16 17 17 16 15 15 15 15 17 17 18 17 17 17 17 18 18 17 17 17 18 18 17 16 15 14 14 13 13 12 12 12 11 11 11 12 12 11 11 11 10 10 10 9 8 8 7 6 5 6 6 6 4 4 4 5 5 6 7 8 9 8 7 8 9 10 10 10 10 10 10 10 9 9 10 10 10 10 11
16 16 16 16 15 14 14 16 17 17 17 18 18 16 16 17 17 16 17 16 16 16 17 17 16 16 16 16 15 14 13 13 12 12 11 11 11 10 10 10 10 10 10 10 11 11 11 11 10 7 7 7 5 4 3 3 4 4 3 3 3 4 5 6 7 8 9 9 8 8 8 8 9 9 9 9 9 9 8 8 8 9 10 10 10
15 16 16 18 18 16 17 17 17 18 20 20 19 17 16 17 16 15 16 15 15 15 16 16 15 15 14 14 13 12 12 11 11 11 10 10 10 10 9 9 9 8 8 8 10 11 11 11 10 7 6 5 4 4 4 2 2 2 2 3 3 3 4 7 8 9 9 10 9 9 8 8 8 8 8 8 9 9 8 7 7 8 9 10 10
14 15 17 18 18 20 19 17 16 18 21 20 18 17 16 16 15 14 14 14 15 14 15 15 14 14 13 12 12 11 11 11 10 10 9 9 9 9 9 8 8 7 7 7 9 9 10 11 11 8 5 5 4 4 5 4 3 2 2 3 4 4 5 7 9 10 10 11 11 10 9 8 8 9 9 8 9 9 9 8 7 7 8 10 11
13 14 16 16 17 20 18 15 14 16 19 18 16 14 14 15 14 13 13 14 14 14 13 13 13 12 12 12 11 11 10 10 9 9 9 9 9 8 8 8 8 7 7 7 8 8 8 10 11 8 5 5 5 5 5 5 5 4 4 4 5 5 5 8 10 11 11 11 11 10 9 9 8 10 10 9 8 9 9 9 8 7 8 9 11
13 13 14 15 16 17 15 13 13 14 16 15 14 13 13 13 12 12 14 14 13 13 12 12 12 11 11 10 10 10 10 9 9 9 9 9 8 8 8 8 7 7 7 7 7 6 7 9 9 8 6 5 4 5 4 4 5 6 4 5 6 6 4 7 12 11 10 11 11 11 10 9 9 10 11 10 9 10 10 9 8 8 8 9 10
12 11 12 14 15 15 14 13 12 12 13 13 14 13 12 12 13 14 14 14 13 12 11 11 10 9 9 8 9 9 9 8 8 8 8 8 8 8 8 7 7 7 7 7 7 7 6 7 7 6 6 5 4 3 4 3 3 5 4 6 6 5 4 5 13 14 10 10 10 10 9 8 8 10 11 11 11 10 10 10 9 8 9 9 10
11 11 10 12 14 13 13 12 11 11 11 12 12 12 12 13 13 14 14 12 11 11 11 10 9 8 8 8 9 9 8 8 7 7 7 7 7 7 7 6 7 7 7 8 8 7 7 6 6 5 5 5 4 2 3 3 3 4 4 5 4 3 4 4 9 14 12 8 7 8 8 8 7 8 10 11 11 11 11 10 9 9 10 10 10
11 11 11 11 12 13 13 11 11 11 11 11 12 12 13 13 13 13 12 11 11 11 11 9 8 8 8 9 9 9 8 8 7 7 7 6 6 6 5 5 6 6 7 7 7 7 7 6 4 3 3 4 4 3 2 3 3 3 3 3 3 2 3 3 4 9 11 7 4 5 6 7 6 7 8 10 10 10 11 11 10 9 10 11 11
11 11 11 11 13 12 11 11 11 11 11 11 13 13 12 12 11 11 10 10 11 11 10 9 9 9 9 9 9 9 9 8 7 7 7 6 6 5 4 4 5 5 6 5 5 5 6 6 4 2 1 2 3 2 2 2 2 3 2 1 2 1 3 2 3 3 5 6 5 3 3 5 5 5 6 8 9 10 10 11 10 9 10 11 11
11 10 11 11 13 12 10 11 10 11 11 12 13 12 11 11 10 10 10 10 10 10 10 9 10 10 10 10 10 9 10 9 8 8 7 6 6 5 5 5 5 5 5 4 4 4 5 5 4 2 1 1 1 1 1 1 1 3 2 0 1 1 3 3 4 3 3 3 4 4 2 2 3 3 4 7 8 9 10 10 10 9 9 9 10
9 10 10 10 11 10 10 10 9 9 10 11 11 11 10 9 8 9 9 9 10 10 10 10 11 11 11 10 10 9 10 10 9 8 7 7 6 6 5 5 5 5 5 5 4 5 4 4 4 3 1 1 1 2 3 1 0 1 1 1 1 3 4 4 7 7 4 3 3 4 4 2 2 2 3 5 6 8 9 10 9 9 8 8 9
8 9 8 8 8 7 8 7 6 7 8 10 10 9 9 8 8 8 8 9 10 11 11 11 11 11 11 10 10 9 9 9 9 8 8 8 7 6 5 5 5 6 7 5 4 5 4 3 2 3 3 2 1 2 4 4 3 1 0 1 1 4 4 6 10 9 4 4 4 3 4 4 4 3 1 3 5 6 7 8 9 9 8 7 7
8 8 7 8 7 6 6 5 5 6 7 9 9 9 8 8 8 8 8 9 10 11 11 12 12 11 11 11 10 10 9 9 9 9 9 10 8 7 6 6 7 8 7 5 4 4 5 4 2 4 6 5 4 3 4 6 5 3 1 1 3 5 5 6 10 10 4 3 6 5 4 4 5 4 2 1 3 5 6 7 8 8 8 7 6
6 6 6 6 6 5 5 4 5 6 7 8 8 8 8 8 8 8 8 9 10 10 11 12 12 12 11 11 11 11 10 9 9 9 10 11 10 8 6 5 7 8 6 4 4 5 5 4 4 5 5 3 4 4 5 7 7 6 3 2 5 6 6 7 9 10 8 5 6 6 6 4 5 6 4 3 3 3 4 6 6 7 7 7 6
5 5 4 3 2 2 4 4 5 5 6 7 7 8 8 9 9 9 9 9 9 9 10 11 11 11 11 11 11 11 11 10 9 9 9 10 9 8 5 4 6 6 4 4 5 7 5 4 5 3 3 3 4 6 7 8 9 8 6 5 7 8 8 9 8 10 10 8 8 9 8 5 6 8 7 5 4 3 4 4 5 5 6 7 7
5 3 2 1 1 2 3 4 5 5 6 7 8 9 8 8 9 10 10 10 9 9 9 9 10 10 11 10 10 11 11 10 10 9 8 7 7 6 5 4 5 5 5 7 8 9 7 5 5 2 2 3 4 6 8 9 10 11 9 7 9 11 11 10 10 9 9 9 10 11 11 9 8 9 9 8 6 5 4 4 4 5 5 6 6
5 4 3 3 4 5 5 5 6 6 7 8 9 9 8 7 8 8 9 10 9 8 7 7 8 9 9 9 9 10 9 9 9 8 7 6 6 6 6 6 6 7 8 10 10 10 8 5 3 4 5 5 4 5 7 9 11 13 11 9 10 12 12 12 11 10 10 10 11 12 13 12 10 11 12 11 9 7 6 4 4 5 5 5 6
5 5 5 5 6 7 7 7 7 8 9 9 9 9 8 7 7 8 9 9 8 7 6 6 7 8 8 8 9 9 8 8 7 6 6 7 7 7 8 8 9 9 10 10 10 10 10 7 4 4 7 7 7 7 7 9 11 11 11 11 12 12 12 11 11 10 9 10 12 13 14 14 13 13 13 13 13 11 9 7 6 6 6 6 7
5 7 7 8 8 9 9 8 8 9 10 10 10 9 8 8 8 7 7 8 8 7 7 6 7 7 8 8 8 8 7 7 7 7 7 8 8 9 9 9 10 9 10 9 9 10 10 9 6 3 4 6 7 7 7 8 9 10 10 11 12 11 10 10 9 10 10 11 12 13 15 15 14 14 14 15 15 14 13 11 9 8 8 8 8
7 8 9 10 10 10 10 9 9 10 10 11 10 9 8 7 7 7 7 7 8 8 8 7 7 7 8 8 8 7 7 7 7 8 9 10 10 10 9 9 9 9 9 9 8 9 9 9 9 7 5 5 6 7 8 8 9 9 10 10 10 10 10 10 11 11 11 11 12 13 15 17 16 16 16 15 16 16 16 15 13 11 10 9 10
7 9 10 11 11 11 10 10 9 9 10 10 9 8 7 7 7 7 8 9 9 9 9 8 7 7 7 7 7 7 7 7 8 8 9 10 10 9 8 8 8 9 9 9 9 8 8 8 8 8 7 8 8 9 10 9 8 8 9 9 9 10 10 11 11 10 11 11 11 12 14 17 18 18 17 17 17 18 18 18 17 15 13 12 11
8 10 11 11 12 11 10 10 9 9 9 9 9 8 7 7 6 7 8 10 10 10 9 8 7 7 7 6 6 6 6 7 7 8 9 9 9 10 9 9 9 10 10 9 9 8 7 6 6 7 7 8 9 9 9 9 8 7 7 8 9 10 11 11 11 11 11 12 12 12 13 15 18 19 18 18 18 18 19 20 20 19 17 15 14
9 11 12 12 13 12 11 10 10 10 9 8 8 7 7 6 6 6 8 9 10 10 10 9 8 8 7 7 7 7 6 6 7 7 8 9 9 10 10 10 10 10 10 10 9 9 7 6 6 5 6 6 7 8 8 8 8 8 7 7 8 9 11 12 13 13 12 13 13 13 13 13 16 19 20 19 19 19 19 20 21 21 20 18 16
10 12 13 14 14 13 12 12 11 10 9 8 7 6 6 5 5 6 7 8 9 10 10 9 9 9 8 8 8 8 7 7 7 7 7 8 9 10 10 10 10 10 10 10 10 10 9 7 6 5 5 5 6 6 7 8 8 9 8 8 7 8 9 10 11 11 11 11 12 12 13 13 14 17 20 21 20 20 20 20 21 22 21 20 19
11 13 14 15 14 13 13 12 11 10 9 8 7 5 5 5 5 6 6 6 7 8 9 9 9 9 9 8 8 8 7 7 7 7 7 8 9 10 10 10 10 10 10 10 11 10 10 9 7 6 6 5 5 6 7 7 8 10 10 10 10 10 9 9 9 9 9 9 9 10 12 13 14 14 17 20 22 21 21 21 20 21 22 22 21
13 14 15 15 14 13 12 11 10 9 8 7 6 5 4 4 5 5 5 5 5 6 8 9 9 9 9 8 7 7 7 7 7 7 7 8 9 9 10 10 10 10 10 10 10 10 9 9 8 8 7 7 7 8 8 8 9 11 12 12 12 12 12 12 11 10 10 9 9 9 10 11 13 13 14 17 21 22 22 21 21 22 23 24 24
13 14 15 14 13 12 11 10 9 7 6 6 5 5 5 5 5 5 5 5 6 6 8 9 10 10 9 9 8 8 7 7 7 7 7 7 8 9 9 9 10 10 9 9 10 9 9 9 9 8 8 8 9 9 10 10 11 11 12 13 13 14 14 13 13 12 11 10 10 10 11 11 12 13 13 15 18 21 22 22 22 23 24 26 27
12 13 14 14 12 11 10 9 7 6 5 5 5 5 5 5 4 5 6 7 7 7 8 9 10 10 9 9 8 8 8 8 8 7 7 7 7 8 8 8 8 8 8 9 9 9 10 10 10 9 9 9 9 9 10 10 11 11 12 13 14 14 14 14 14 13 13 12 11 11 11 11 12 13 14 14 16 19 19 19 21 23 24 25 26
10 11 12 12 11 10 8 7 6 5 4 4 4 4 5 4 4 5 6 7 7 7 8 8 9 8 7 6 6 7 8 8 7 7 7 7 6 7 7 7 7 7 8 8 9 9 10 10 10 10 10 10 10 10 9 10 10 11 11 12 13 14 14 14 14 14 14 13 12 11 11 11 12 13 15 16 17 16 17 20 21 22 23 23 24
8 8 9 9 9 8 7 5 4 3 2 2 2 3 3 3 2 4 5 6 6 6 7 7 6 6 5 5 5 6 7 7 7 7 6 6 6 6 6 6 7 7 8 8 8 9 9 10 10 10 10 11 11 12 11 11 11 11 12 13 13 13 14 14 14 14 14 14 13 12 11 12 12 13 15 17 19 17 18 22 21 21 21 21 22
6 6 7 7 8 7 6 5 3 1 1 1 1 2 2 2 1 2 4 4 4 5 5 5 4 4 4 4 5 6 6 6 6 6 6 5 5 5 5 6 6 7 8 8 9 9 10 10 10 11 11 12 12 12 13 13 13 13 14 14 14 14 14 14 14 14 14 14 14 13 12 13 14 15 16 18 21 20 19 22 22 21 21 22 24
6 6 6 7 8 7 6 5 4 2 1 1 1 1 0 1 1 1 2 2 2 3 4 3 3 4 4 5 5 5 5 5 5 5 5 5 5 5 6 6 7 7 7 8 9 10 10 11 11 12 12 13 13 13 13 13 13 14 15 15 15 15 14 14 15 14 14 14 14 14 14 13 14 16 18 19 22 22 21 21 22 23 23 22 25
7 6 6 7 7 7 7 6 5 5 4 3 3 2 2 1 1 2 2 1 0 1 2 3 3 4 4 5 5 5 4 4 4 5 5 5 6 6 6 7 7 8 8 8 9 10 10 11 11 12 12 13 13 13 14 14 13 14 15 15 16 16 16 16 16 15 15 15 14 14 14 14 14 15 17 19 21 22 22 22 21 24 25 24 24
7 7 7 7 7 7 7 7 6 6 5 5 4 3 3 2 2 2 2 2 1 1 1 2 3 4 4 4 4 5 5 5 5 6 6 6 6 7 8 8 8 9 10 10 9 10 10 11 11 12 12 13 14 14 14 14 14 14 14 15 16 17 17 17 17 17 16 16 15 15 15 15 15 15 16 18 19 21 22 22 21 23 26 28 28
8 8 8 8 8 7 7 7 6 6 5 5 4 3 3 2 1 1 1 1 1 1 2 3 4 4 5 4 4 5 6 6 6 7 7 8 8 9 10 10 10 11 11 12 11 11 11 11 11 12 12 13 15 15 15 15 14 14 14 15 16 17 18 19 18 18 17 17 16 15 15 15 16 17 17 18 18 19 22 23 24 25 27 30 30
8 8 9 8 8 8 8 7 6 5 5 5 4 3 3 2 1 1 0 0 0 2 3 4 4 4 6 6 5 6 7 7 7 8 9 10 10 11 12 12 12 12 13 13 13 12 12 12 12 13 13 14 15 17 17 16 16 15 15 16 17 18 18 19 19 19 18 18 17 16 16 16 16 17 18 18 19 18 20 22 25 27 29 31 31
7 8 8 9 9 8 7 6 6 6 5 5 4 3 3 2 2 1 1 0 1 2 3 4 5 4 5 6 6 7 8 8 9 9 10 11 11 12 13 14 14 14 14 14 14 13 13 13 13 13 13 14 15 17 18 18 18 18 17 16 17 18 19 19 19 19 19 19 19 18 17 17 16 17 18 18 19 18 18 19 22 26 29 32 32
8 8 8 8 9 8 7 7 7 7 6 5 5 4 3 3 3 2 2 2 3 4 4 5 5 6 7 7 8 9 9 10 10 10 11 12 12 13 14 15 15 15 15 15 15 14 14 13 14 14 13 14 14 16 18 19 20 20 20 19 17 18 19 19 19 19 20 20 19 19 19 18 18 18 18 18 18 18 18 17 19 23 27 30 32
8 8 8 9 9 9 9 9 8 8 7 6 5 5 5 5 5 5 5 5 6 6 6 7 8 8 9 10 10 11 11 12 12 12 13 14 14 15 15 16 16 17 17 16 16 15 15 15 15 15 14 14 14 15 17 18 20 21 22 22 21 20 20 20 19 19 19 20 20 20 19 19 19 19 19 18 18 17 17 17 17 19 22 27 30
8 8 9 10 10 10 11 10 10 9 8 8 8 7 8 7 8 8 8 8 8 8 9 9 10 10 11 12 12 13 13 14 14 14 15 16 16 17 18 18 18 18 17 17 16 15 16 16 16 17 17 17 16 16 17 18 19 20 21 23 24 23 22 21 20 19 19 20 20 21 20 20 20 19 19 19 18 18 17 17 17 17 19 22 26
7 8 9 10 11 11 11 11 11 11 10 10 10 10 10 10 10 10 10 10 10 11 12 12 13 13 13 14 15 15 15 15 15 16 16 17 18 18 19 20 20 19 18 17 16 16 16 17 18 19 19 20 20 19 19 19 19 20 21 22 23 24 24 24 23 21 20 21 21 21 21 21 21 20 19 18 18 18 18 17 17 18 19 20 22
8 8 9 11 12 12 12 12 12 12 12 12 12 11 11 11 12 12 12 13 13 14 15 15 16 16 17 17 18 18 18 18 18 18 18 18 18 19 20 21 22 21 20 19 17 17 17 18 20 21 22 23 23 22 21 21 21 21 21 21 22 23 25 26 26 25 23 22 22 22 22 22 21 21 20 19 18 18 18 18 17 17 19 20 22
9 9 10 12 13 13 13 13 13 13 13 13 13 13 13 13 14 14 15 15 16 17 18 19 19 20 20 20 21 21 21 21 21 20 20 20 20 20 21 22 22 21 21 19 18 17 17 18 19 20 22 23 23 23 22 22 22 21 21 21 21 22 23 25 26 27 26 24 23 23 24 23 22 22 20 20 19 19 18 18 19 19 19 20 22
11 11 12 13 14 15 15 14 14 14 15 15 15 16 16 17 17 18 18 18 19 21 22 23 23 24 24 24 24 24 24 23 22 22 22 22 21 21 22 21 21 20 20 19 17 16 16 17 18 19 20 21 22 23 23 23 23 22 22 22 21 21 22 23 24 26 27 27 25 24 24 24 23 22 22 21 20 20 20 20 20 21 22 22 23
13 14 15 14 15 17 17 17 17 17 17 18 18 19 20 21 21 22 22 23 24 25 26 27 27 28 27 27 26 25 25 24 24 23 23 22 22 22 22 21 20 19 19 18 17 17 17 18 19 20 21 22 22 23 24 24 24 24 24 24 23 23 23 23 23 24 25 27 28 27 25 24 24 22 22 22 22 21 21 22 22 24 25 25 26
16 17 16 16 17 18 19 19 19 19 19 19 20 21 22 23 23 24 26 27 28 30 30 30 30 30 28 27 27 26 26 25 24 24 23 22 22 22 22 21 20 19 18 18 17 17 18 19 20 22 22 23 23 24 25 25 26 26 26 26 26 26 25 24 23 23 23 24 27 28 27 26 25 24 22 22 23 23 24 24 25 26 27 28 29
17 18 17 18 19 20 21 20 21 21 21 21 22 23 25 26 26 27 28 29 31 32 32 31 30 28 26 26 26 26 26 25 24 24 23 22 23 23 22 21 20 19 19 18 18 17 17 19 21 22 23 24 24 25 26 27 27 28 28 29 29 29 28 27 25 24 23 23 24 25 27 27 26 25 25 25 25 26 27 27 28 29 30 31 31
Wind_Direction
95 102 107 108 107 101 96 89 87 86 87 92 87 82 78 73 78 79 81 81 81 80 79 80 79 78 75 74 73 70 67 63 61 59 56 53 50 48 46 44 43 41 39 36 36 38 39 36 35 35 36 44 52 55 52 47 44 45 45 46 51 57 62 62 60 56 59 69 78 89 92 95 98 99 101 102 102 100 100 102 105 111 118 122 125
95 97 100 101 101 95 90 85 84 83 83 90 89 88 82 77 80 79 78 81 83 83 83 83 81 79 75 74 71 68 67 65 64 61 59 57 56 54 52 51 49 49 45 42 39 40 44 43 40 38 38 43 51 53 49 46 41 42 44 44 49 55 62 66 69 66 68 79 84 91 94 96 97 97 100 102 100 99 100 101 102 106 114 123 127
96 95 92 91 93 93 89 84 82 80 78 83 85 90 91 86 83 81 79 80 82 82 83 83 82 80 78 75 72 70 69 68 67 65 65 64 63 61 59 59 57 56 51 47 44 46 50 50 48 44 44 45 48 49 46 48 46 44 46 50 57 64 70 74 78 73 71 80 83 86 91 95 98 97 98 99 99 100 103 106 105 106 111 121 128
93 88 84 79 82 93 88 80 80 79 74 74 74 84 90 86 84 83 80 79 80 79 78 79 79 79 78 77 76 75 74 73 73 73 72 70 70 68 66 64 62 59 55 52 49 50 54 57 55 52 54 52 52 53 48 49 53 55 53 60 72 86 93 91 91 84 75 73 78 82 88 96 99 99 100 99 100 100 104 111 114 114 112 116 125
87 82 78 72 77 83 75 74 82 81 77 75 74 78 79 80 84 83 81 80 78 76 76 76 76 77 79 80 81 81 81 81 81 79 77 77 76 73 71 66 63 60 56 53 50 50 53 60 62 60 63 63 65 72 70 60 64 71 77 79 81 110 123 118 111 103 89 78 79 85 91 100 104 102 103 103 102 102 106 113 120 124 118 116 120
88 81 73 75 77 69 64 71 83 85 83 81 77 78 77 81 85 84 85 84 80 79 79 79 79 80 82 85 87 87 86 86 86 85 84 82 79 75 71 66 62 58 56 53 51 48 49 58 65 69 73 82 99 115 117 115 105 95 101 95 94 118 140 138 131 123 107 91 85 88 95 103 106 103 102 107 108 108 112 115 122 129 128 125 121
90 80 74 78 73 67 66 68 82 86 85 84 82 82 81 83 84 84 85 84 84 83 82 83 83 85 88 90 91 90 89 89 89 88 86 81 75 70 65 62 57 52 50 50 50 47 47 53 61 67 77 92 106 123 134 147 152 141 130 118 111 121 148 151 144 138 123 103 94 93 97 106 108 102 97 103 110 113 117 119 123 132 137 135 130
88 83 78 76 68 70 71 71 80 83 83 84 84 83 81 82 81 80 81 81 83 84 86 87 87 89 90 90 90 90 88 86 84 81 78 73 69 64 59 54 49 44 39 43 47 47 49 52 54 53 62 77 89 108 130 147 150 154 149 131 110 106 140 157 153 146 131 112 101 100 101 107 111 103 96 97 104 111 116 117 122 131 139 140 137
90 86 84 80 75 76 78 79 79 79 80 80 82 82 80 79 78 76 78 82 85 87 88 88 88 86 86 86 86 83 79 75 73 72 70 69 65 61 56 50 45 39 32 33 36 38 46 53 52 41 45 61 78 104 121 141 146 148 128 98 92 84 99 152 158 150 133 115 100 100 102 106 111 106 99 96 99 105 110 112 119 127 134 139 138
98 90 87 87 89 88 87 88 85 82 77 75 79 79 76 74 75 77 81 86 88 90 88 85 81 78 76 73 70 66 64 63 62 64 65 64 62 60 55 50 46 40 33 29 26 22 31 49 52 36 32 50 62 96 115 127 133 126 80 64 82 80 69 131 160 157 138 120 102 96 98 102 107 106 102 99 98 100 104 106 115 124 130 136 137
109 103 96 94 96 96 95 94 91 86 74 72 71 70 75 73 78 84 88 91 91 91 86 79 71 66 61 54 53 51 48 47 48 50 51 54 55 56 53 50 48 43 40 34 27 18 18 34 47 36 22 40 48 59 105 114 115 106 63 59 71 68 62 87 154 161 151 136 116 100 97 100 100 102 104 103 102 101 101 103 113 124 130 134 136
115 112 105 100 99 97 97 92 89 83 73 70 66 67 74 74 80 86 89 93 91 87 80 72 64 55 48 43 42 38 37 35 35 34 35 39 43 46 43 42 40 37 37 36 31 24 22 22 31 39 21 27 35 37 66 97 108 110 95 77 69 87 94 73 126 161 165 165 152 115 97 93 92 95 105 107 106 105 104 104 112 124 131 136 138
116 113 109 104 100 99 96 89 85 80 73 70 66 64 66 68 73 77 81 83 80 75 69 63 56 48 43 39 36 34 33 30 29 27 27 28 29 28 23 25 27 26 25 24 26 27 30 26 21 32 62 38 24 27 44 77 100 112 122 60 41 134 176 149 126 163 181 190 208 180 102 79 81 87 102 109 111 112 111 109 110 120 129 136 140
113 110 107 103 102 101 97 92 85 77 71 66 63 61 62 65 66 69 73 70 67 64 59 55 50 46 40 36 35 34 32 32 33 30 27 25 22 15 9 11 15 16 14 10 12 21 31 37 34 26 101 114 45 320 346 57 107 130 146 60 354 250 216 191 182 221 259 220 235 233 202 61 61 73 98 111 114 119 119 116 113 117 127 136 143
107 104 103 102 105 106 100 92 81 71 65 62 63 63 65 67 67 69 68 64 62 59 55 51 47 40 33 32 30 30 32 35 36 33 29 24 19 10 3 1 5 8 4 359 2 6 9 28 42 41 51 113 165 249 266 278 269 154 135 56 338 268 243 225 218 237 286 277 270 256 249 292 331 29 86 116 118 122 123 125 121 119 126 136 144
111 105 104 102 103 106 98 87 75 72 66 64 67 67 68 68 70 68 64 63 62 59 53 46 41 34 28 25 24 26 31 35 36 37 34 28 20 11 6 8 5 2 357 352 353 353 346 352 20 45 37 19 354 285 283 280 281 263 165 72 284 266 251 237 231 239 278 270 262 250 255 286 279 293 15 133 130 130 127 129 132 129 130 137 147
112 106 102 96 94 95 91 81 70 71 69 71 72 70 69 68 68 65 61 61 59 55 48 41 35 30 26 22 22 26 31 34 36 38 40 36 31 26 22 18 7 359 356 348 341 334 324 318 342 36 33 11 351 323 299 288 285 283 243 162 259 271 272 257 245 248 260 251 250 243 249 282 263 253 263 195 155 146 136 132 138 140 140 144 152
105 101 94 89 91 82 73 70 64 63 63 66 67 63 64 65 62 60 56 55 53 49 43 37 31 26 22 20 23 29 32 33 34 38 41 40 39 37 29 17 5 2 4 350 330 324 318 323 347 19 24 357 332 319 303 293 292 289 278 259 262 268 271 264 260 263 273 270 253 250 251 266 249 233 241 244 201 168 152 143 142 146 149 153 162
118 108 94 82 84 64 61 67 58 52 54 56 58 55 58 62 58 54 55 56 53 45 38 32 28 25 20 18 24 29 29 28 31 35 41 41 37 38 34 12 357 360 8 346 328 324 319 343 348 346 10 348 313 307 306 301 297 291 281 270 263 263 263 256 256 262 274 280 268 257 253 259 246 230 231 239 232 205 176 164 157 158 159 162 169
143 143 146 139 128 109 104 86 63 51 52 60 64 61 61 63 62 61 61 59 55 46 37 31 27 25 20 18 23 25 25 24 25 26 34 35 25 28 29 14 355 345 345 336 330 324 320 350 355 316 347 346 313 306 311 312 301 290 283 276 267 265 265 259 254 251 256 266 266 260 257 258 249 232 227 225 232 230 209 191 183 179 175 176 178
151 154 160 156 141 126 111 89 76 71 70 77 79 77 74 71 70 70 64 57 56 50 40 34 28 26 24 20 21 23 21 19 21 19 20 26 20 17 15 8 357 345 342 340 336 330 324 341 351 314 318 324 329 324 315 312 298 287 285 284 276 268 265 265 262 252 245 246 250 253 253 252 246 236 229 223 228 236 235 221 211 204 198 197 195
145 139 135 129 123 112 99 90 89 91 94 97 94 90 85 77 73 72 65 57 56 54 44 35 27 23 21 20 21 21 17 15 20 20 15 21 22 16 10 2 355 350 349 349 345 339 329 324 318 315 322 328 334 329 310 297 288 287 290 289 286 278 266 264 266 258 246 241 242 242 243 244 242 237 230 224 225 233 240 238 233 226 217 213 210
131 130 127 121 116 109 106 104 103 107 111 111 108 103 93 79 71 67 61 53 51 50 42 32 23 17 12 14 18 18 12 9 15 23 23 23 22 19 13 6 1 357 356 357 353 346 337 329 324 316 310 315 318 314 307 298 296 300 296 288 286 281 265 256 265 266 255 247 245 242 238 236 236 236 232 225 223 228 237 241 243 240 233 225 220
123 126 126 123 121 119 118 115 112 113 118 119 117 109 96 81 69 63 56 49 45 43 39 30 21 16 11 12 18 19 14 11 16 24 28 28 27 24 18 13 10 9 6 4 0 352 346 341 337 338 331 326 329 331 331 325 318 309 299 289 281 275 264 261 269 271 265 258 256 255 247 235 230 232 233 229 225 227 234 241 244 245 244 237 229
125 127 130 131 131 129 126 122 117 116 118 119 116 108 98 85 73 64 57 50 46 42 40 33 24 20 17 18 21 23 24 25 28 32 36 37 37 37 33 28 23 23 22 17 13 6 355 347 342 343 347 351 351 348 346 343 331 313 302 294 285 278 273 275 277 273 269 269 267 267 263 246 231 229 232 231 229 229 234 241 244 244 247 245 239
142 140 141 141 137 131 126 122 120 120 120 117 112 107 99 90 78 67 59 53 48 44 43 37 32 27 25 26 26 27 31 36 42 47 49 51 53 55 52 45 39 36 35 32 28 21 11 3 359 356 357 356 352 351 352 352 348 335 315 299 292 289 287 286 284 278 274 276 277 272 271 258 238 230 231 233 233 232 234 239 240 240 244 246 244
160 155 151 146 139 133 128 124 122 122 120 114 110 105 101 95 82 70 61 56 52 48 46 44 42 39 36 37 39 40 41 45 53 59 60 60 60 60 58 53 48 43 40 41 39 34 29 21 14 9 6 359 355 357 360 2 3 2 353 330 310 299 295 290 284 281 280 279 279 273 267 262 247 235 232 234 236 234 234 236 236 236 237 240 243
157 154 150 146 143 139 133 127 123 120 118 115 110 106 101 93 80 66 59 56 52 49 48 49 49 50 51 52 54 56 56 55 57 61 60 57 57 57 57 55 50 44 40 39 37 37 35 32 25 15 13 9 4 4 3 4 3 7 14 10 354 334 314 300 289 286 286 284 281 274 264 259 254 245 237 235 237 237 235 234 234 234 235 236 239
143 145 146 147 146 141 134 129 125 120 117 116 113 106 93 80 72 64 57 55 52 49 50 52 54 56 56 55 55 57 58 56 53 54 52 47 48 52 54 53 49 43 39 37 36 34 33 34 32 25 23 18 12 9 5 2 360 1 8 10 6 357 344 328 313 300 295 293 288 280 268 260 259 256 247 239 237 237 236 234 233 233 235 238 239
137 142 145 147 147 142 138 133 126 119 114 111 106 97 84 71 67 69 70 66 62 57 55 55 58 57 53 49 46 45 45 46 45 43 43 42 44 49 51 48 45 42 38 38 39 39 36 34 33 28 22 16 9 5 4 2 359 358 358 357 355 352 349 342 334 323 310 300 293 288 279 268 262 261 258 248 240 237 236 234 233 232 232 235 237
136 143 148 150 150 147 142 134 124 113 102 94 90 85 80 75 74 83 89 85 77 69 62 59 58 55 51 46 42 40 39 39 39 38 39 43 46 47 48 46 42 41 39 39 41 42 40 37 35 30 22 16 9 3 1 1 360 356 352 348 346 345 343 341 337 334 327 315 303 292 284 277 269 263 262 258 249 241 236 234 234 234 231 232 234
136 144 150 153 154 151 146 137 123 108 92 83 85 86 85 84 85 92 92 87 78 70 64 59 57 55 49 44 41 41 40 40 40 40 41 43 44 44 46 46 43 41 39 39 39 38 38 36 33 28 24 19 15 12 7 3 359 353 349 347 345 344 342 340 337 334 333 328 320 308 295 283 276 270 265 264 259 249 242 239 239 239 236 235 235
137 145 150 155 157 155 147 135 122 108 95 86 82 80 83 85 89 94 90 83 73 67 62 59 59 57 54 49 43 41 40 40 39 38 40 40 39 40 42 42 39 36 33 32 32 32 32 32 29 25 21 17 14 15 15 10 2 356 354 353 351 349 347 345 342 337 334 330 325 317 308 296 285 277 269 266 265 259 250 244 239 238 239 239 240
143 149 153 156 157 153 140 127 118 110 96 72 65 66 68 66 80 100 96 84 74 66 60 59 60 61 61 55 47 44 39 37 36 33 32 32 30 31 33 31 27 24 22 21 20 20 20 22 23 19 15 12 9 9 9 9 6 2 2 1 1 358 357 355 351 345 337 333 329 320 310 302 295 288 281 273 268 262 256 254 246 238 237 240 243
149 155 158 159 157 151 143 137 137 134 105 41 47 54 48 20 33 117 114 96 80 66 57 52 49 48 45 39 39 39 35 30 29 26 20 17 15 14 17 16 13 11 9 9 9 8 8 10 12 9 5 3 3 3 1 1 2 2 1 1 2 2 3 2 0 357 348 341 335 328 316 305 298 293 291 285 276 264 256 261 259 249 240 238 238
151 158 166 167 163 159 159 164 169 174 165 151 129 124 246 295 282 173 137 108 84 68 52 36 27 29 27 23 22 20 23 23 17 12 2 354 352 352 356 356 355 355 356 356 359 0 1 3 3 1 358 355 353 353 353 353 355 356 355 354 354 354 355 357 357 358 357 353 346 338 329 316 303 294 290 289 285 274 257 253 257 258 251 241 237
159 163 175 177 174 172 174 178 180 181 176 175 175 183 217 234 202 194 183 175 136 87 40 14 5 10 11 9 6 357 359 6 355 345 339 332 332 334 336 337 336 336 338 343 348 350 352 355 355 353 352 348 345 345 346 346 348 350 348 346 345 344 343 345 346 348 352 355 355 350 342 331 318 305 295 288 286 282 268 252 249 257 258 252 246
169 171 182 187 188 185 182 185 190 190 185 182 184 182 187 176 172 197 211 230 249 258 327 339 339 347 348 348 348 337 336 341 332 325 320 315 317 321 321 322 322 323 327 332 337 342 344 346 346 343 342 340 338 339 340 339 341 344 342 339 339 338 338 338 338 339 342 346 351 353 349 343 333 322 310 300 290 284 276 262 251 252 255 255 253
181 182 189 192 193 193 189 194 198 193 187 182 175 166 160 146 144 177 207 232 289 300 302 306 314 325 324 327 338 330 328 327 319 316 314 312 315 315 315 317 317 319 322 326 331 337 337 336 336 334 334 333 331 331 332 331 332 335 334 332 333 333 334 335 335 336 337 338 341 346 348 346 342 335 327 319 308 292 280 269 259 253 251 251 251
196 194 197 197 197 198 197 198 196 191 189 181 164 149 135 113 106 104 67 39 343 301 292 293 302 314 317 325 333 324 319 318 315 315 316 317 316 315 315 316 316 317 320 323 326 329 329 328 329 328 328 328 327 325 325 326 325 326 326 326 327 328 329 331 333 334 334 333 333 336 340 342 341 339 336 331 325 311 292 278 267 260 254 252 252
218 211 206 200 201 203 201 196 195 194 190 179 165 152 139 135 143 142 128 126 225 250 263 277 289 298 304 313 317 316 315 314 315 315 315 314 313 313 313 313 314 315 316 317 318 318 318 318 318 319 320 322 322 321 322 323 323 322 322 323 323 323 323 326 330 330 330 330 330 331 333 334 334 334 335 334 332 324 309 293 278 268 261 257 257
239 227 213 204 204 205 203 200 199 198 189 181 175 172 172 181 194 202 216 230 231 238 250 266 280 290 297 305 308 308 308 308 311 313 312 311 312 313 314 315 315 314 312 310 308 308 308 309 309 311 314 316 319 318 320 322 322 322 321 321 321 319 319 322 325 325 325 326 328 329 328 327 327 328 329 330 331 328 320 307 291 276 267 261 258
249 236 217 207 207 207 206 207 204 200 193 192 196 199 207 217 228 237 242 245 249 255 264 273 282 291 298 302 303 302 303 306 309 312 314 316 317 318 319 320 319 315 311 308 307 306 306 306 307 310 313 317 320 321 322 323 322 321 321 321 320 319 318 318 320 321 320 322 324 325 324 323 321 322 323 323 324 324 321 315 304 288 275 266 262
249 239 224 211 210 211 212 211 209 207 206 209 215 221 228 236 244 250 253 257 264 270 274 278 284 292 296 299 300 301 303 305 307 311 314 316 318 319 320 319 318 315 313 310 307 305 306 308 310 314 318 323 327 328 328 326 322 321 321 320 320 319 317 316 316 318 317 318 319 319 319 319 317 316 316 316 317 317 317 316 311 301 287 275 268
247 242 233 221 217 218 220 219 216 215 217 221 226 234 242 247 252 258 264 271 277 281 283 287 291 294 297 299 301 302 303 302 303 306 309 312 314 315 316 316 316 314 313 311 309 308 310 313 317 321 325 328 331 332 332 329 325 323 321 320 319 318 317 316 316 317 316 315 315 314 315 314 313 312 310 309 308 309 310 311 310 306 298 287 277
241 242 242 236 229 227 228 228 227 226 227 231 236 244 253 259 262 268 275 282 287 287 289 292 294 296 298 299 300 300 299 298 298 300 303 305 308 310 313 316 317 317 316 315 315 316 317 321 324 327 329 330 330 330 330 328 326 325 323 321 319 317 317 317 316 317 317 316 315 313 312 311 310 308 305 302 300 299 300 301 302 302 300 293 283
235 238 243 245 240 236 235 236 237 239 241 246 254 261 267 271 273 276 281 285 288 289 290 292 294 296 296 297 298 297 296 295 295 297 300 303 306 310 315 318 319 318 317 316 315 315 317 321 324 326 327 326 326 326 326 325 324 324 323 321 319 316 315 315 315 316 315 315 314 313 313 312 310 306 303 299 296 294 293 294 296 297 298 295 288
238 240 242 246 247 246 245 245 247 250 256 262 270 275 278 279 281 284 287 288 290 291 292 294 296 297 298 298 298 297 296 295 296 297 299 303 307 310 314 316 316 315 313 310 307 308 311 315 319 322 322 322 323 323 323 323 323 322 321 320 318 315 313 312 312 313 313 313 312 312 313 313 311 307 304 301 296 292 290 290 292 295 296 296 293
243 244 246 249 253 255 254 255 257 260 265 272 278 283 286 287 289 291 293 294 294 294 295 296 297 298 299 300 300 298 296 296 296 297 299 302 305 308 310 311 311 310 308 304 302 305 309 314 320 322 322 322 323 324 324 324 323 322 321 319 317 314 312 310 309 309 310 312 313 313 312 313 312 308 302 300 298 294 290 289 290 293 294 295 294
248 249 251 252 255 258 260 261 264 267 272 277 283 287 289 292 293 294 295 296 296 296 296 297 297 298 299 300 299 297 295 294 294 295 297 299 302 304 307 307 307 308 306 303 303 306 311 317 322 324 324 323 324 324 325 325 325 324 322 320 318 316 313 311 310 309 310 311 313 314 312 310 311 309 303 299 297 294 292 291 292 293 293 293 291
250 252 252 252 255 259 262 264 268 271 275 280 285 290 292 295 296 297 296 295 296 296 296 297 296 297 297 298 298 295 293 292 292 293 295 297 300 303 305 306 307 309 308 305 304 307 313 318 321 322 323 322 322 323 324 326 326 325 324 322 320 318 316 314 314 313 313 312 312 313 311 306 304 303 302 299 297 295 292 291 292 293 293 293 291